This demonstration page uses our WeatherBlox Daily Observations layout. Learn more.

Left ArrowRight Arrow

Hourly Observations for April 7, 2022

Temp ( °F °C ) Dew Point ( °F °C ) Humidity (%) Winds ( mph kmh ) Pressure ( in mb ) Visibility ( mi km ) Precip ( " mm )
12:56 am 00:56 Clear 44 6.5 26 -3.5 49 49 WNW 15 24 29.88 1012 10 16 0.00 0.00
1:56 am 01:56 Mostly Cloudy 44 6.7 25 -4.1 46 46 NW 18 30 29.89 1012 10 16 0.00 0.00
2:56 am 02:56 Mostly Clear 43 5.9 18 -7.7 37 37 NW 17 28 29.88 1012 10 16 0.00 0.00
3:56 am 03:56 Mostly Clear 41 5.1 19 -7.4 40 40 NW 17 28 29.88 1012 10 16 0.00 0.00
4:56 am 04:56 Mostly Cloudy 41 5.2 20 -6.7 42 42 WNW 18 30 29.87 1012 10 16 0.00 0.00
5:56 am 05:56 Partly Cloudy 40 4.5 17 -8.3 39 39 NW 26 43 29.86 1011 9 14 0.00 0.00
6:56 am 06:56 Mostly Cloudy 39 3.8 19 -7.3 45 45 NW 21 33 29.87 1012 10 16 0.00 0.00
7:56 am 07:56 Mostly Cloudy 39 3.7 20 -6.9 46 46 NW 26 43 29.87 1012 10 16 0.00 0.00
8:56 am 08:56 Cloudy 38 3.6 23 -4.8 55 55 NW 30 48 29.88 1012 8 13 0.00 0.00
9:39 am 09:39 Windy with Snow Likely 39 4 25 -4 56 56 NW 25 41 29.88 1012 10 16 0.00 0.00
10:56 am 10:56 Windy with Rain Showers Likely 40 4.2 27 -2.7 61 61 NW 23 37 29.90 1013 10 16 0.00 0.00
11:03 am 11:03 Windy with Snow Likely 39 4 28 -2 65 65 NW 28 44 29.90 1013 9 14 0.00 0.00
11:56 am 11:56 Windy with Snow Likely 41 4.8 27 -3 57 57 NW 24 39 29.91 1013 10 16 0.00 0.00
12:56 pm 12:56 Windy with Rain Showers Likely 40 4.3 31 -0.7 70 70 NW 24 39 29.90 1013 10 16 0.00 0.00
1:56 pm 13:56 Mostly Cloudy with Light Rain/Snow 39 4 29 -1.6 67 67 NW 22 35 29.91 1013 10 16 0.00 0.00
2:56 pm 14:56 Cloudy with Light Rain/Snow 42 5.4 30 -1.3 62 62 NW 14 22 29.91 1013 10 16 0.00 0.00
3:34 pm 15:34 Cloudy 41 5 32 0 70 70 NNW 21 33 29.91 1013 10 16 0.00 0.00
3:56 pm 15:56 Cloudy 42 5.6 28 -2.5 56 56 NW 28 44 29.92 1013 10 16 0.01 0.25
4:56 pm 16:56 Cloudy 41 4.8 24 -4.5 51 51 NW 26 43 29.93 1014 10 16 0.00 0.00
5:56 pm 17:56 Cloudy 40 4.7 25 -3.8 54 54 NNW 22 35 29.95 1014 10 16 0.00 0.00
6:01 pm 18:01 Windy with Snow Likely 41 5 25 -4 53 53 NNW 28 44 29.95 1014 9 14 0.00 0.00
6:56 pm 18:56 Windy with Snow Likely 36 2.3 29 -1.5 76 76 NW 23 37 29.97 1015 9 14 0.00 0.00
7:56 pm 19:56 Mostly Cloudy with Light Snow 34 1.3 30 -1.1 84 84 NNW 14 22 29.99 1016 3 5 0.02 0.51
8:56 pm 20:56 Mostly Cloudy with Light Snow 35 1.6 31 -0.7 85 85 NW 15 24 30.00 1016 10 16 0.02 0.51
9:26 pm 21:26 Mostly Cloudy with Light Snow 34 1 30 -1 87 87 NW 10 17 30.01 1016 3 4 0.00 0.00
9:56 pm 21:56 Mostly Clear with Mist and Fog 34 0.9 31 -0.4 91 91 NW 12 19 30.01 1016 5 8 0.00 0.00
10:56 pm 22:56 Partly Cloudy 35 1.7 31 -0.4 86 86 NNW 13 20 30.00 1016 10 16 0.06 1.52
11:56 pm 23:56 Cloudy with Light Rain 35 1.7 30 -1.2 81 81 NNW 15 24 30.01 1016 10 16 0.01 0.25

Powered by AerisWeather